Flag for Netherlands Weather past 2 weeks in Wageningen, Netherlands

Now
41 °F

Clear.


Feels Like: 36 °F
Forecast: 40 / 51 °F
Wind: 8 mph from South

Location: Deelen


UV Index: 3 (Moderate)

Visibility: N/A


Pressure: 30.24 "Hg

Humidity: 76%

Dew point: 34 °F

Location of WageningenLocation

Historic Weather in Wageningen

°F

Wageningen temperature yesterday

Maximum temperature yesterday: 59 °F (at 4:55 PM)
Minimum temperature yesterday: 27 °F (at 6:55 AM)
Average temperature yesterday: 45 °F

Past Weeks' High & Low Weather Summary

 TemperatureHumidityPressure
High73 °F (Apr 3, 4:25 PM)100% (Apr 5, 5:25 AM)30.45 "Hg (Apr 5, 5:25 AM)
Low27 °F (Apr 16, 6:55 AM)36% (Apr 3, 4:25 PM)29.59 "Hg (Apr 3, 11:55 AM)
Average52 °F75%30.02 "Hg
* Reported Apr 2 4:25 AM — Apr 17 4:55 AM, Wageningen, Weather by CustomWeather, © 2014

Note: Actual official high and low records may vary slightly from our data, if they occured in-between our weather recording intervals... More about our weather records

Advertising

Historic Weather Conditions — Data for Previous 24 hours

 ConditionsComfort  
Time TempWeatherWind HumidityBarometerVisibility
4:55 AM
Apr 17
41 °FClear.6 mph76%30.24 "HgN/A
4:25 AM43 °FPassing clouds.5 mph71%30.24 "HgN/A
3:55 AM43 °FPassing clouds.6 mph71%30.24 "HgN/A
3:25 AM41 °FClear.5 mph76%30.27 "HgN/A
2:55 AM43 °FPassing clouds.5 mph71%30.27 "HgN/A
2:25 AM41 °FPassing clouds.3 mph76%30.27 "HgN/A
1:55 AM43 °FPassing clouds.3 mph71%30.30 "HgN/A
1:25 AM43 °FClear.3 mph71%30.30 "HgN/A
12:55 AM43 °FPassing clouds.3 mph66%30.30 "HgN/A
12:25 AM41 °FPassing clouds.2 mph70%30.30 "HgN/A
11:55 PM
Apr 16
41 °FClear.3 mph70%30.30 "HgN/A
10:55 PM41 °FPassing clouds.5 mph70%30.33 "HgN/A
10:25 PM43 °FClear.5 mph66%30.33 "HgN/A
9:55 PM43 °FPassing clouds.5 mph66%30.33 "HgN/A
9:25 PM45 °FPassing clouds.5 mph61%30.33 "HgN/A
8:55 PM46 °FSunny.5 mph62%30.33 "HgN/A
8:25 PM52 °FSunny.3 mph47%30.33 "HgN/A
7:55 PM55 °FSunny.7 mph38%30.33 "HgN/A
7:25 PM57 °FSunny.8 mph36%30.33 "HgN/A
6:55 PM57 °FSunny.7 mph36%30.33 "HgN/A
6:25 PM57 °FSunny.8 mph39%30.36 "HgN/A
5:55 PM59 °FPassing clouds.8 mph36%30.36 "HgN/A
5:25 PM57 °FPassing clouds.9 mph36%30.36 "HgN/A
4:55 PM59 °FPassing clouds.7 mph39%30.36 "HgN/A
4:25 PM57 °FSunny.7 mph39%30.39 "HgN/A
3:55 PM57 °FPassing clouds.9 mph39%30.39 "HgN/A
3:25 PM57 °FPassing clouds.7 mph39%30.39 "HgN/A
2:55 PM55 °FPassing clouds.7 mph38%30.42 "HgN/A
2:25 PM55 °FPassing clouds.7 mph44%30.42 "HgN/A
1:55 PM55 °FSunny.6 mph44%30.42 "HgN/A
1:25 PM54 °FScattered clouds.8 mph44%30.42 "HgN/A
12:55 PM54 °FPassing clouds.8 mph47%30.42 "HgN/A
12:25 PMN/APassing clouds.8 mphN/A30.45 "HgN/A
12:00 PM54 °FSunny.9 mph51%30.45 "HgN/A
11:55 AM54 °FSunny.8 mph47%30.45 "HgN/A
11:25 AM52 °FSunny.7 mph58%30.45 "HgN/A
10:55 AM52 °FCool.7 mph58%30.45 "HgN/A
9:55 AM46 °FSunny.5 mph71%30.45 "HgN/A
9:25 AM45 °FSunny.2 mph76%30.45 "HgN/A
8:55 AM43 °FPassing clouds.3 mph81%30.45 "HgN/A
8:25 AM36 °FSunny.1 mph93%30.42 "HgN/A
7:55 AM30 °FPassing clouds.2 mph93%30.45 "HgN/A
7:25 AM28 °FClear.2 mph93%30.42 "HgN/A
6:55 AM27 °FPassing clouds.3 mph100%30.42 "HgN/A
6:25 AM28 °FPassing clouds.1 mph93%30.42 "HgN/A
Weather by CustomWeather, © 2014

See weather overview